Location: Unspecified
(49.2170°N, 0.0000°E)
Time: 16:49:33
(UTC+00:00)

Envisat - Pass Details

Date: 26 November 2020
Orbit: 764 x 766 km, 98.1° (Epoch: 20 January)

Event Time Altitude Azimuth Distance (km) Brightness Sun altitude
Rises 05:03:22 0° 23° (NNE) 3,246 6.5 -22.8°
Reaches altitude 10° 05:06:02 10° 35° (NE) 2,315 5.8 -22.4°
Maximum altitude 05:10:20 27° 93° (E) 1,453 5.2 -21.7°
Drops below altitude 10° 05:14:35 10° 150° (SSE) 2,299 6.0 -21.0°
Sets 05:17:13 0° 163° (SSE) 3,220 6.6 -20.6°
